Terminal Aerodrome Forecast
Issued by NWS Denver/Boulder, CO

Home | Current Version | Previous Version | Text Only | Print | Product List | Glossary On
Versions: 1 2 3 4 5 6 7 8 9 10 11 12 13 14 15 16 17 18 19 20 21 22 23 24 25 26 27 28 29 30 31 32 33 34 35 36 37 38 39 40 41 42 43 44 45 46 47 48 49 50
973
FTUS45 KBOU 221141
TAFDEN
TAF
KDEN 221141Z 2212/2318 01012KT P6SM FEW220
     FM221500 22012KT P6SM FEW220
     FM221700 19014G22KT P6SM FEW100
     FM222000 19018G30KT P6SM SCT100 BKN220
     FM230200 22012G20KT P6SM SCT100 BKN220
     FM230500 36010KT P6SM SCT100 BKN220
     FM231200 05010KT P6SM SCT020 BKN070
      TEMPO 2314/2318 BKN022=

USA.gov is the U.S. government's official web portal to all federal, state and local government web resources and services.